{"data":{"norad_id":55618,"epoch":"2026-09-20T21:16:08.743584Z","epoch_age_seconds":67002,"freshness":"FRESH","line1":"1 55618U 23020BB  26263.88621231  .00000298  00000+0  20366-4 0  9991","line2":"2 55618  43.0034 331.7321 0001253 272.6052  87.4657 15.27582055198898","mean_motion":15.27582055,"eccentricity":0.0001253,"inclination_deg":43.0034,"raan_deg":331.7321,"arg_perigee_deg":272.6052,"mean_anomaly_deg":87.4657,"bstar":2.0366e-5,"rev_number":19889,"period_min":94.266621900059,"perigee_km":482.18323679046,"apogee_km":483.90264848408,"semimajor_km":6861.1799426373,"source":"CELESTRAK","updated_at":"2026-09-21T09:00:33.276677Z"}}